Weather in Trokovychi

Ukraine / Zhytomyr Region     50°22′52″N   28°42′55″E
temp.,
°C
wind,
m/s
gust,
m/s
humid.,
%
clouds,
%
prec.,
mm/h
press.,
hPa
HPBL,
m
13 april, tue
tue1300:00+7se2291100 0.0 102125
03:00+7s1188100 0.0 102011
06:00+8se1187100 0.0 102020
09:00+9se2487100 0.0 1019200
12:00+11se4470100 0.0 1019586
15:00+11se4471100 0.0 1018613
18:00+12se3471100 0.0 1017747
21:00+9se3485100 0.0 101773
14 april, wed
wed1400:00+8se369285 0.0 1016157
03:00+8sse3786100 0.0 1015287
06:00+8sse4990100 0.1 1014388
09:00+8se4891100 0.1 1014302
12:00+10s6877100 0.1 1014706
15:00+11ssw3672100 0.6 1013561
18:00+13sse356393 0.6 1012584
21:00+10se227598 0.8 101337
15 april, thu
thu1500:00+9sse3579100 0.0 1013117
03:00+8ese1181100 0.0 101312
06:00+8ne2283100 0.0 101343
09:00+9ne3578100 0.0 1013302
12:00+12e2364100 0.2 1013796
15:00+13nnw1259100 1.3 10121048
18:00+12nnw1267100 0.9 1011232
21:00+10w1288100 2.4 101257
16 april, fri
fri1600:00+9nnw2489100 0.3 1011134
03:00+7wnw4795100 0.3 1010279
06:00+7w4695100 0.0 1010274
09:00+7w4493100 0.1 1010317
12:00+7w4591100 0.0 1011315
15:00+7w3488100 0.4 1011377
18:00+6wsw3394100 4.8 1012234
21:00+6wsw2395100 6.6 1013179
17 april, sat
sat1700:00+5sw2295100 0.6 1014103
03:00+5nw0194100 0.8 101542
06:00+6ne1397100 0.4 1016157
09:00+4ne3391100 0.1 1017488
12:00+8e3482100 0.5 1018802
15:00+7e3590100 1.1 1019431
18:00+8e248798 0.3 1020413
21:00+6sse3594100 0.4 1021262